Voltar ao catálogo

FENGYUN 1C DEB

AtivoSSO
NORAD 41824·DEBRIS·🇨🇳 China

Lançado May 10, 1999 de Taiyuan Satellite Launch Center

Loading…

Próximas Passagens (próximas 24 horas)

TLE

AtualizadoSource: Space-Track

Época: Sep 14, 2026, 03:24 UTC

1 41824U 99025EYB 26257.14230924  .00002002  00000-0  84688-3 0  9992
2 41824  98.7124 324.4323 0057330 148.3036 212.1616 14.25738493512829

Acompanhe FENGYUN 1C DEB em tempo real com AllMySat

Download on the App Store